| time (UTC) | temp C | wind direction | speed KPH | gust KPH | rain 1hr cm | rain 24hr cm | rain mn cm | humidity % | barometer mb |
| 20260507093038 | 5 | 268 | 0.0 | 3.2 | 0.00 | 0.00 | 0.00 | 73 | 1015.3 |
| 20260507091535 | 5 | 227 | 1.6 | 11.3 | 0.00 | 0.00 | 0.00 | 73 | 1015.4 |
| 20260507090031 | 5 | 301 | 0.0 | 9.7 | 0.00 | 0.00 | 0.00 | 73 | 1015.5 |
| 20260507084530 | 5 | 265 | 0.0 | 4.8 | 0.00 | 0.00 | 0.00 | 74 | 1015.2 |
| 20260507083029 | 5 | 297 | 0.0 | 6.4 | 0.00 | 0.00 | 0.00 | 74 | 1015.2 |
| 20260507081525 | 5 | 248 | 0.0 | 1.6 | 0.00 | 0.00 | 0.00 | 74 | 1015.1 |
| 20260507080024 | 6 | 289 | 0.0 | 1.6 | 0.00 | 0.00 | 0.00 | 73 | 1015.2 |
| 20260507074519 | 6 | 257 | 0.0 | 4.8 | 0.00 | 0.00 | 0.00 | 73 | 1015.3 |
| 20260507073017 | 6 | 281 | 0.0 | 4.8 | 0.00 | 0.00 | 0.00 | 73 | 1015.3 |
| 20260507071536 | 6 | 268 | 0.0 | 4.8 | 0.00 | 0.00 | 0.00 | 73 | 1015.2 |
| 20260507070013 | 6 | 255 | 0.0 | 0.0 | 0.00 | 0.00 | 0.00 | 73 | 1015.2 |
| 20260507064515 | 6 | 235 | 0.0 | 1.6 | 0.00 | 0.08 | 0.00 | 72 | 1015.4 |
| 20260507063008 | 6 | 228 | 0.0 | 1.6 | 0.00 | 0.08 | 0.00 | 71 | 1015.5 |
| 20260507061506 | 7 | 275 | 0.0 | 0.0 | 0.00 | 0.08 | 0.00 | 70 | 1015.4 |
| 20260507060003 | 7 | 294 | 0.0 | 6.4 | 0.00 | 0.18 | 0.00 | 71 | 1015.5 |
| 20260507054603 | 7 | 314 | 0.0 | 0.0 | 0.00 | 0.18 | 0.00 | 71 | 1015.4 |
| 20260507053127 | 7 | 270 | 0.0 | 4.8 | 0.00 | 0.18 | 0.00 | 70 | 1015.3 |
| 20260507051604 | 7 | 245 | 0.0 | 6.4 | 0.00 | 0.18 | 0.00 | 70 | 1015.4 |
| 20260507050052 | 7 | 238 | 0.0 | 1.6 | 0.00 | 0.18 | 0.00 | 71 | 1015.4 |
| 20260507044555 | 7 | 238 | 0.0 | 0.0 | 0.00 | 0.38 | 0.00 | 71 | 1015.3 |
| 20260507043050 | 8 | 266 | 0.0 | 0.0 | 0.00 | 0.38 | 0.00 | 71 | 1015.2 |
| 20260507041546 | 8 | 243 | 0.0 | 1.6 | 0.00 | 0.38 | 0.00 | 71 | 1015.2 |
| 20260507040040 | 8 | 264 | 0.0 | 0.0 | 0.00 | 0.38 | 0.00 | 71 | 1015.1 |
| 20260507034540 | 8 | 234 | 0.0 | 0.0 | 0.00 | 0.66 | 0.38 | 72 | 1015.3 |
| 20260507033044 | 8 | 263 | 0.0 | 0.0 | 0.00 | 0.66 | 0.38 | 72 | 1015.2 |
| 20260507031536 | 8 | 231 | 0.0 | 0.0 | 0.00 | 0.66 | 0.38 | 71 | 1015.1 |
| 20260507030033 | 9 | 259 | 0.0 | 0.0 | 0.00 | 0.66 | 0.38 | 71 | 1015.1 |
| 20260507024536 | 9 | 239 | 0.0 | 0.0 | 0.00 | 0.79 | 0.38 | 70 | 1015.1 |
| 20260507023034 | 10 | 248 | 0.0 | 0.0 | 0.00 | 0.79 | 0.38 | 68 | 1015.1 |
| 20260507021527 | 10 | 250 | 0.0 | 0.0 | 0.00 | 0.79 | 0.38 | 67 | 1015.1 |
| 20260507020026 | 10 | 250 | 0.0 | 0.0 | 0.00 | 0.79 | 0.38 | 65 | 1015.0 |
| 20260507014525 | 10 | 242 | 0.0 | 0.0 | 0.00 | 0.89 | 0.38 | 65 | 1015.1 |
| 20260507013023 | 11 | 264 | 0.0 | 0.0 | 0.00 | 0.89 | 0.38 | 64 | 1014.8 |
| 20260507011522 | 11 | 259 | 0.0 | 0.0 | 0.00 | 0.89 | 0.38 | 64 | 1014.8 |
| 20260507010024 | 11 | 266 | 0.0 | 1.6 | 0.00 | 0.89 | 0.38 | 62 | 1014.7 |
| 20260507004522 | 11 | 233 | 0.0 | 3.2 | 0.00 | 1.07 | 0.38 | 61 | 1014.2 |
| 20260507003016 | 12 | 233 | 0.0 | 4.8 | 0.00 | 1.07 | 0.38 | 60 | 1014.3 |
| 20260507001516 | 12 | 239 | 0.0 | 3.2 | 0.00 | 1.07 | 0.38 | 60 | 1014.2 |
| 20260507000016 | 12 | 278 | 0.0 | 6.4 | 0.00 | 1.07 | 0.38 | 59 | 1014.0 |
| 20260506234513 | 12 | 283 | 0.0 | 6.4 | 0.00 | 1.19 | 0.38 | 57 | 1014.1 |
| 20260506233012 | 12 | 229 | 0.0 | 11.3 | 0.00 | 1.19 | 0.38 | 55 | 1014.1 |
| 20260506231509 | 12 | 260 | 0.0 | 8.0 | 0.00 | 1.19 | 0.38 | 53 | 1014.3 |
| 20260506230008 | 13 | 256 | 3.2 | 11.3 | 0.00 | 1.19 | 0.38 | 50 | 1014.3 |
| 20260506224503 | 13 | 253 | 0.0 | 12.9 | 0.00 | 1.42 | 0.38 | 52 | 1014.2 |
| 20260506223001 | 13 | 229 | 8.0 | 16.1 | 0.00 | 1.42 | 0.38 | 52 | 1014.5 |
| 20260506221600 | 13 | 222 | 4.8 | 14.5 | 0.00 | 1.42 | 0.38 | 51 | 1014.3 |
| 20260506220058 | 13 | 258 | 4.8 | 17.7 | 0.00 | 1.42 | 0.38 | 52 | 1014.2 |
| 20260506214604 | 13 | 225 | 3.2 | 16.1 | 0.00 | 1.55 | 0.38 | 50 | 1014.2 |
| 20260506213050 | 13 | 248 | 4.8 | 19.3 | 0.00 | 1.55 | 0.38 | 53 | 1014.3 |
| 20260506211546 | 12 | 245 | 1.6 | 16.1 | 0.00 | 1.55 | 0.38 | 54 | 1014.4 |
| 20260506210043 | 12 | 317 | 0.0 | 16.1 | 0.00 | 1.55 | 0.38 | 55 | 1014.3 |
| 20260506204548 | 12 | 242 | 0.0 | 9.7 | 0.00 | 1.68 | 0.38 | 53 | 1014.4 |
| 20260506203039 | 12 | 247 | 1.6 | 12.9 | 0.00 | 1.68 | 0.38 | 55 | 1014.2 |
| 20260506201536 | 12 | 225 | 0.0 | 11.3 | 0.00 | 1.68 | 0.38 | 55 | 1014.4 |
| 20260506200035 | 12 | 257 | 3.2 | 14.5 | 0.00 | 1.68 | 0.38 | 54 | 1014.5 |
| 20260506194534 | 12 | 265 | 0.0 | 9.7 | 0.00 | 1.93 | 0.38 | 55 | 1014.4 |
| 20260506193031 | 12 | 290 | 4.8 | 19.3 | 0.00 | 1.93 | 0.38 | 51 | 1014.5 |
| 20260506191530 | 12 | 229 | 1.6 | 9.7 | 0.00 | 1.93 | 0.38 | 54 | 1014.4 |
| 20260506190028 | 12 | 249 | 3.2 | 12.9 | 0.00 | 1.93 | 0.38 | 53 | 1014.4 |
| 20260506183024 | 12 | 208 | 0.0 | 9.7 | 0.00 | 2.13 | 0.38 | 55 | 1014.6 |
| 20260506181523 | 12 | 229 | 1.6 | 11.3 | 0.00 | 2.13 | 0.38 | 55 | 1014.5 |
| 20260506180019 | 12 | 230 | 3.2 | 8.0 | 0.00 | 2.13 | 0.38 | 53 | 1014.6 |
| 20260506174519 | 12 | 238 | 0.0 | 9.7 | 0.00 | 2.26 | 0.38 | 54 | 1014.5 |
| 20260506173017 | 12 | 238 | 0.0 | 8.0 | 0.00 | 2.26 | 0.38 | 53 | 1014.4 |
| 20260506171519 | 12 | 245 | 0.0 | 4.8 | 0.00 | 2.26 | 0.38 | 53 | 1014.5 |
| 20260506170109 | 11 | 289 | 0.0 | 9.7 | 0.00 | 2.26 | 0.38 | 55 | 1014.5 |
| 20260506164507 | 11 | 295 | 0.0 | 9.7 | 0.00 | 2.36 | 0.38 | 56 | 1014.5 |
| 20260506163008 | 11 | 240 | 0.0 | 4.8 | 0.00 | 2.36 | 0.38 | 58 | 1014.7 |
| 20260506161502 | 11 | 12 | 0.0 | 4.8 | 0.00 | 2.36 | 0.38 | 58 | 1014.7 |
| 20260506160002 | 11 | 252 | 0.0 | 8.0 | 0.00 | 2.39 | 0.38 | 57 | 1014.7 |
| 20260506154502 | 11 | 215 | 0.0 | 3.2 | 0.00 | 2.39 | 0.38 | 57 | 1014.5 |
| 20260506153005 | 11 | 274 | 3.2 | 11.3 | 0.00 | 2.39 | 0.38 | 57 | 1014.6 |
| 20260506151559 | 11 | 333 | 0.0 | 6.4 | 0.00 | 2.39 | 0.38 | 55 | 1014.4 |
| 20260506150058 | 11 | 360 | 0.0 | 8.0 | 0.00 | 2.39 | 0.38 | 60 | 1014.2 |
| 20260506144602 | 10 | 11 | 0.0 | 6.4 | 0.00 | 2.39 | 0.38 | 59 | 1014.2 |
| 20260506143046 | 10 | 307 | 3.2 | 12.9 | 0.00 | 2.39 | 0.38 | 56 | 1014.1 |
| 20260506141541 | 10 | 333 | 1.6 | 9.7 | 0.00 | 2.39 | 0.38 | 59 | 1013.9 |
| 20260506140039 | 10 | 331 | 0.0 | 9.7 | 0.00 | 2.39 | 0.38 | 61 | 1013.8 |
| 20260506134538 | 10 | 8 | 1.6 | 11.3 | 0.00 | 2.39 | 0.38 | 60 | 1013.7 |
| 20260506133040 | 10 | 340 | 0.0 | 8.0 | 0.00 | 2.39 | 0.38 | 68 | 1013.4 |
| 20260506131528 | 9 | 1 | 0.0 | 8.0 | 0.00 | 2.39 | 0.38 | 75 | 1013.4 |
| 20260506130025 | 8 | 274 | 0.0 | 3.2 | 0.00 | 2.39 | 0.38 | 81 | 1013.3 |
| 20260506124521 | 8 | 319 | 4.8 | 9.7 | 0.00 | 2.39 | 0.38 | 83 | 1012.9 |
| 20260506123017 | 8 | 321 | 1.6 | 8.0 | 0.00 | 2.39 | 0.38 | 88 | 1012.8 |
| 20260506121512 | 7 | 257 | 1.6 | 8.0 | 0.00 | 2.39 | 0.38 | 89 | 1012.6 |
| 20260506120021 | 7 | 259 | 0.0 | 4.8 | 0.00 | 2.39 | 0.38 | 91 | 1012.6 |
| 20260506114506 | 6 | 221 | 0.0 | 3.2 | 0.00 | 2.39 | 0.38 | 91 | 1012.2 |
| 20260506113003 | 6 | 245 | 0.0 | 3.2 | 0.00 | 2.39 | 0.38 | 91 | 1011.9 |
| 20260506111503 | 6 | 269 | 0.0 | 3.2 | 0.00 | 2.39 | 0.38 | 92 | 1011.8 |
| 20260506110058 | 6 | 259 | 0.0 | 3.2 | 0.00 | 2.39 | 0.38 | 92 | 1011.5 |
| 20260506104600 | 6 | 259 | 0.0 | 1.6 | 0.00 | 2.39 | 0.38 | 92 | 1011.4 |
| 20260506103057 | 6 | 236 | 0.0 | 1.6 | 0.00 | 2.39 | 0.38 | 92 | 1011.1 |
| 20260506101553 | 6 | 236 | 0.0 | 1.6 | 0.00 | 2.39 | 0.38 | 92 | 1011.2 |
| 20260506100053 | 6 | 262 | 0.0 | 3.2 | 0.00 | 2.39 | 0.38 | 92 | 1010.9 |
| 20260506094602 | 6 | 262 | 0.0 | 1.6 | 0.00 | 2.39 | 0.38 | 92 | 1010.5 |